Location: Melbourne
(37.8170°S, 144.9670°E)
Time: 18:43:50
(UTC+11:00)

CZ-3 R/B - Visible Passes

Search period start: 09 December 2016 00:00
Search period end: 19 December 2016 00:00
Orbit: 228 x 10688 km, 28.4° (Epoch: 08 December)

Date Brightness Start Highest point End Pass type
(mag) Time Alt. Az. Time Alt. Az. Time Alt. Az.
09 Dec 5.5 03:46:12 10° W 04:24:54 17° WNW 04:47:30 10° NW visible
09 Dec 6.4 20:07:04 10° WNW 20:49:47 74° N 22:16:01 10° ENE visible
10 Dec 5.7 00:08:33 10° W 01:24:32 50° NW 02:01:15 27° N visible
10 Dec 6.2 21:06:39 10° W 22:00:42 72° NNW 23:18:19 10° ENE visible
11 Dec 5.7 01:16:07 10° WSW 02:26:57 37° NW 02:52:09 28° NNW visible
11 Dec 6.0 22:07:08 10° W 23:11:20 66° NNW 00:10:44 22° NE visible
12 Dec 5.6 02:30:01 10° W 03:26:37 24° WNW 03:43:51 21° NW visible
12 Dec 6.3 19:13:09 10° WNW 19:44:56 73° N 21:15:01 10° ENE visible
12 Dec 5.9 23:08:53 10° W 00:19:12 56° NW 01:02:39 31° NNE visible
13 Dec 6.2 04:06:18 10° W 04:24:34 11° WNW 04:35:47 11° WNW visible
13 Dec 6.4 20:11:16 10° W 20:52:27 74° N 22:19:07 10° ENE visible
14 Dec 5.8 00:12:37 10° W 01:23:32 44° NW 01:54:40 33° N visible
14 Dec 6.2 21:10:01 10° W 22:01:38 70° NNW 23:13:34 19° NE visible
15 Dec 6.0 01:20:03 10° W 02:24:44 32° WNW 02:46:43 27° NNW visible
15 Dec 6.0 22:09:37 10° W 23:10:08 62° NNW 00:05:34 29° NNE visible
16 Dec 6.3 02:36:26 10° W 03:23:40 19° WNW 03:38:43 18° NW visible
16 Dec 6.2 19:15:06 10° WNW 19:45:25 73° N 21:15:21 10° ENE visible
16 Dec 6.0 23:10:30 10° W 00:16:05 51° NW 00:57:31 33° N visible
17 Dec 6.4 20:12:24 10° W 20:51:30 71° N 22:16:17 12° ENE visible
18 Dec 6.1 00:13:37 10° W 01:18:59 39° NW 01:49:23 31° NNW visible
18 Dec 6.2 21:10:17 10° W 21:58:45 66° NNW 23:08:03 23° NE visible
